When you browse on this site, cookies collect data to enhance your experience and personalize the content and advertising you see.
Visit our Privacy Policy to learn more. By continuing to use the site, you agree to this use of cookies and data.
  • In Sweden
  • List of Countries
  • For 7 days
  • Water Temperature
  • Weather Map
  • Weather Widgets
  • user-avatar
    Login

    Hourly Weather Madurai

    Today, 28 May, Thursday

    Time Temperature Precipitation Wind Pressure Humidity
    00:00 +31°C° 0 mm 2 mps 743 mmHg 66%
    01:00 +31°C° 0 mm 2 mps 743 mmHg 67%
    02:00 +31°C° 0 mm 1 mps 742 mmHg 67%
    03:00 +30°C° 0 mm 1 mps 742 mmHg 68%
    04:00 +30°C° 0 mm 1 mps 742 mmHg 69%
    05:00 +30°C° 0 mm 1 mps 742 mmHg 72%
    06:00 +31°C° 0 mm 1 mps 743 mmHg 69%
    07:00 +32°C° 0 mm 1 mps 743 mmHg 66%
    08:00 +32°C° 0 mm 1 mps 744 mmHg 64%
    09:00 +34°C° 0 mm 1 mps 744 mmHg 58%
    10:00 +36°C° 0 mm 2 mps 744 mmHg 53%
    11:00 +37°C° 0 mm 1 mps 744 mmHg 47%
    12:00 +39°C° 0 mm 1 mps 743 mmHg 44%
    13:00 +39°C° 0 mm 1 mps 742 mmHg 41%
    14:00 +40°C° 0 mm 1 mps 741 mmHg 38%
    15:00 +39°C° 0 mm 3 mps 741 mmHg 42%
    16:00 +40°C° 0 mm 4 mps 741 mmHg 45%
    17:00 +39°C° 0 mm 5 mps 741 mmHg 49%
    18:00 +37°C° 0.6 mm 5 mps 741 mmHg 54%
    19:00 +36°C° 0.6 mm 4 mps 742 mmHg 59%
    20:00 +34°C° 0.6 mm 4 mps 743 mmHg 64%
    21:00 +34°C° 0.3 mm 3 mps 743 mmHg 64%
    22:00 +34°C° 0.3 mm 3 mps 744 mmHg 64%
    23:00 +33°C° 0.3 mm 3 mps 744 mmHg 64%

    Tomorrow, 29 May, Friday

    Time Temperature Precipitation Wind Pressure Humidity
    00:00 +33°C° 0.1 mm 3 mps 743 mmHg 66%
    01:00 +31°C° 0.1 mm 2 mps 743 mmHg 68%
    02:00 +31°C° 0.1 mm 2 mps 742 mmHg 69%
    03:00 +31°C° 0 mm 2 mps 742 mmHg 69%
    04:00 +31°C° 0 mm 2 mps 742 mmHg 68%
    05:00 +31°C° 0 mm 2 mps 742 mmHg 68%
    06:00 +31°C° 0 mm 2 mps 743 mmHg 67%
    07:00 +31°C° 0 mm 2 mps 743 mmHg 65%
    08:00 +31°C° 0 mm 2 mps 744 mmHg 63%
    09:00 +32°C° 0 mm 1 mps 744 mmHg 61%
    10:00 +33°C° 0 mm 1 mps 744 mmHg 58%
    11:00 +33°C° 0 mm 1 mps 744 mmHg 56%
    12:00 +34°C° 0 mm 1 mps 743 mmHg 54%
    13:00 +35°C° 0 mm 2 mps 743 mmHg 52%
    14:00 +36°C° 0 mm 2 mps 742 mmHg 51%
    15:00 +36°C° 0 mm 2 mps 742 mmHg 49%
    16:00 +36°C° 0 mm 2 mps 742 mmHg 47%
    17:00 +37°C° 0 mm 3 mps 742 mmHg 45%
    18:00 +35°C° 0 mm 3 mps 743 mmHg 52%
    19:00 +34°C° 0 mm 3 mps 743 mmHg 59%
    20:00 +33°C° 0 mm 4 mps 744 mmHg 67%
    21:00 +31°C° 0 mm 3 mps 744 mmHg 68%
    22:00 +31°C° 0 mm 1 mps 744 mmHg 70%
    23:00 +29°C° 0 mm 0 mps 744 mmHg 71%

    Day after tomorrow, 30 May, Saturday

    Time Temperature Precipitation Wind Pressure Humidity
    00:00 +29°C° 0 mm 0 mps 744 mmHg 72%
    01:00 +31°C° 0 mm 1 mps 743 mmHg 72%
    02:00 +30°C° 0 mm 1 mps 743 mmHg 73%
    03:00 +30°C° 0 mm 1 mps 743 mmHg 73%
    04:00 +30°C° 0 mm 1 mps 743 mmHg 73%
    05:00 +30°C° 0 mm 1 mps 743 mmHg 73%
    06:00 +31°C° 0 mm 1 mps 743 mmHg 69%
    07:00 +31°C° 0 mm 1 mps 744 mmHg 66%
    08:00 +32°C° 0 mm 1 mps 744 mmHg 62%
    09:00 +33°C° 0 mm 1 mps 744 mmHg 57%
    10:00 +34°C° 0 mm 1 mps 744 mmHg 52%
    11:00 +36°C° 0 mm 1 mps 745 mmHg 47%
    12:00 +37°C° 0 mm 2 mps 744 mmHg 47%
    13:00 +37°C° 0 mm 2 mps 744 mmHg 45%
    14:00 +38°C° 0 mm 2 mps 743 mmHg 43%
    15:00 +37°C° 0 mm 2 mps 743 mmHg 44%
    16:00 +37°C° 0 mm 2 mps 743 mmHg 44%
    17:00 +37°C° 0 mm 2 mps 743 mmHg 45%
    18:00 +36°C° 0.1 mm 3 mps 743 mmHg 49%
    19:00 +35°C° 0.1 mm 3 mps 744 mmHg 52%
    20:00 +33°C° 0.1 mm 4 mps 744 mmHg 56%
    21:00 +33°C° 0.4 mm 3 mps 745 mmHg 58%
    22:00 +31°C° 0.4 mm 3 mps 745 mmHg 60%
    23:00 +31°C° 0.4 mm 2 mps 745 mmHg 62%

    31 May, Sunday

    Time Temperature Precipitation Wind Pressure Humidity
    00:00 +30°C° 0 mm 2 mps 745 mmHg 64%
    01:00 +30°C° 0 mm 2 mps 744 mmHg 67%
    02:00 +29°C° 0 mm 2 mps 744 mmHg 69%
    03:00 +29°C° 0 mm 2 mps 744 mmHg 70%
    04:00 +29°C° 0 mm 2 mps 744 mmHg 72%
    05:00 +29°C° 0 mm 2 mps 744 mmHg 73%
    06:00 +29°C° 0 mm 2 mps 744 mmHg 70%
    07:00 +30°C° 0 mm 2 mps 745 mmHg 66%
    08:00 +31°C° 0 mm 2 mps 745 mmHg 62%
    09:00 +34°C° 0 mm 2 mps 745 mmHg 56%
    10:00 +35°C° 0 mm 2 mps 745 mmHg 51%
    11:00 +36°C° 0 mm 2 mps 745 mmHg 45%
    12:00 +37°C° 0 mm 2 mps 745 mmHg 42%
    13:00 +38°C° 0 mm 2 mps 744 mmHg 39%
    14:00 +39°C° 0 mm 2 mps 743 mmHg 36%
    15:00 +38°C° 0 mm 3 mps 743 mmHg 41%
    16:00 +37°C° 0 mm 5 mps 743 mmHg 46%
    17:00 +36°C° 0 mm 6 mps 743 mmHg 51%
    18:00 +35°C° 0.1 mm 6 mps 743 mmHg 56%
    19:00 +34°C° 0.1 mm 5 mps 744 mmHg 62%
    20:00 +33°C° 0.1 mm 5 mps 744 mmHg 67%
    21:00 +33°C° 0 mm 4 mps 745 mmHg 67%
    22:00 +33°C° 0 mm 4 mps 745 mmHg 66%
    23:00 +33°C° 0 mm 3 mps 745 mmHg 66%

    1 June, Monday

    Time Temperature Precipitation Wind Pressure Humidity
    00:00 +31°C° 0 mm 3 mps 745 mmHg 66%
    01:00 +31°C° 0 mm 2 mps 744 mmHg 67%
    02:00 +31°C° 0 mm 2 mps 744 mmHg 68%
    03:00 +31°C° 0 mm 2 mps 744 mmHg 68%
    04:00 +30°C° 0 mm 2 mps 744 mmHg 69%
    05:00 +30°C° 0 mm 2 mps 744 mmHg 70%
    06:00 +31°C° 0 mm 2 mps 745 mmHg 66%
    07:00 +32°C° 0 mm 2 mps 745 mmHg 62%
    08:00 +32°C° 0 mm 1 mps 746 mmHg 58%
    09:00 +35°C° 0 mm 2 mps 746 mmHg 54%
    10:00 +36°C° 0 mm 2 mps 745 mmHg 49%
    11:00 +37°C° 0 mm 2 mps 745 mmHg 45%
    12:00 +38°C° 0 mm 2 mps 745 mmHg 43%
    13:00 +39°C° 0 mm 2 mps 744 mmHg 40%
    14:00 +39°C° 0 mm 2 mps 743 mmHg 38%
    15:00 +38°C° 0 mm 4 mps 743 mmHg 42%
    16:00 +37°C° 0 mm 5 mps 743 mmHg 46%
    17:00 +36°C° 0 mm 6 mps 743 mmHg 50%
    18:00 +36°C° 0 mm 6 mps 743 mmHg 52%
    19:00 +35°C° 0 mm 5 mps 744 mmHg 53%
    20:00 +35°C° 0 mm 4 mps 744 mmHg 55%
    21:00 +34°C° 0.7 mm 4 mps 745 mmHg 57%
    22:00 +33°C° 0.7 mm 4 mps 745 mmHg 60%
    23:00 +31°C° 0.7 mm 3 mps 745 mmHg 63%

    2 June, Tuesday

    Time Temperature Precipitation Wind Pressure Humidity
    00:00 +31°C° 0 mm 3 mps 745 mmHg 64%
    01:00 +31°C° 0 mm 2 mps 744 mmHg 65%
    02:00 +30°C° 0 mm 2 mps 744 mmHg 66%
    03:00 +30°C° 0 mm 1 mps 744 mmHg 66%
    04:00 +30°C° 0 mm 1 mps 744 mmHg 67%
    05:00 +30°C° 0 mm 1 mps 744 mmHg 68%
    06:00 +31°C° 0 mm 1 mps 744 mmHg 64%
    07:00 +31°C° 0 mm 2 mps 745 mmHg 60%
    08:00 +32°C° 0 mm 2 mps 746 mmHg 57%
    09:00 +35°C° 0 mm 3 mps 746 mmHg 52%
    10:00 +36°C° 0 mm 3 mps 745 mmHg 47%
    11:00 +37°C° 0 mm 3 mps 745 mmHg 42%
    12:00 +38°C° 0 mm 3 mps 745 mmHg 39%
    13:00 +39°C° 0 mm 3 mps 744 mmHg 37%
    14:00 +40°C° 0 mm 3 mps 743 mmHg 35%
    15:00 +40°C° 0 mm 4 mps 743 mmHg 37%
    16:00 +40°C° 0 mm 4 mps 743 mmHg 39%
    17:00 +38°C° 0 mm 4 mps 743 mmHg 40%
    18:00 +37°C° 0.8 mm 5 mps 743 mmHg 45%
    19:00 +35°C° 0.8 mm 5 mps 744 mmHg 49%
    20:00 +34°C° 0.8 mm 5 mps 745 mmHg 54%
    21:00 +34°C° 0.3 mm 4 mps 745 mmHg 55%
    22:00 +33°C° 0.3 mm 4 mps 745 mmHg 57%
    23:00 +32°C° 0.3 mm 4 mps 745 mmHg 59%
    Show more